Hourly Data Report for October 21, 2014

All times are specified in Local Standard Time (LST). Add 1 hour to adjust for Daylight Saving Time where and when it is observed.

WINNIPEG A CS
MANITOBA

49°55'00.000" N
97°14'58.000" W
238.70 m
502S001
71849
XWG

Download Data

Hourly Data (October 2014)
Hourly Data Report for October 21, 2014
Temp Definition
°C
Dew Point Temp Definition
°C
Rel Hum Definition
%
Wind Dir Definition
10's deg

Wind Spd Definition
km/h
Visibility Definition
km
Stn Press Definition
kPa
Hmdx Definition


Wind Chill Definition


Weather Definition


TIME
00:00 5.3 2.2 81 16 21   98.86     LegendNANA
01:00 4.9 2.0 81 15 23   98.83     LegendNANA
02:00 4.8 2.0 82 15 23   98.83     LegendNANA
03:00 4.4 1.8 84 16 20   98.82     LegendNANA
04:00 4.3 2.1 86 15 21   98.78     LegendNANA
05:00 4.4 2.4 87 16 24   98.79     LegendNANA
06:00 4.3 2.3 87 15 21   98.76     LegendNANA
07:00 3.9 2.0 88 15 23   98.76     LegendNANA
08:00 4.9 2.6 85 15 25   98.71     LegendNANA
09:00 7.0 3.5 78 16 26   98.69     LegendNANA
10:00 9.2 4.2 71 16 30   98.67     LegendNANA
11:00 12.0 5.1 63 16 26   98.61     LegendNANA
12:00 13.2 4.8 57 15 28   98.53     LegendNANA
13:00 15.1 4.7 50 15 33   98.41     LegendNANA
14:00 16.3 4.1 44 15 36   98.25     LegendNANA
15:00 16.5 4.3 44 15 40   98.17     LegendNANA
16:00 15.9 4.4 46 15 38   98.12     LegendNANA
17:00 14.7 4.4 50 15 38   98.14     LegendNANA
18:00 13.1 4.4 55 15 29   98.13     LegendNANA
19:00 12.1 4.2 58 15 29   98.11     LegendNANA
20:00 11.9 4.1 59 16 33   98.09     LegendNANA
21:00 11.8 4.1 59 16 37   98.07     LegendNANA
22:00 11.9 4.2 59 17 36   98.03     LegendNANA
23:00 12.5 4.5 58 18 46   98.01     LegendNANA

Notes on Data Quality.

Legend

  • E = Estimated
  • M = Missing
  • NA = Not Available
  • ‡ = Partner data that is not subject to review by the National Climate Archives
Date modified: